Retour au catalogue

FENGYUN 1C DEB

ActifLEO
NORAD 32455·DEBRIS·🇨🇳 China

Lancé May 10, 1999 depuis Taiyuan Satellite Launch Center

Loading…

Prochains Passages (prochaines 24 heures)

TLE

FraisSource: Space-Track

Époque: Sep 13, 2026, 13:41 UTC

1 32455U 99025DBT 26256.57020455  .00001430  00000-0  90375-3 0  9998
2 32455 101.7231 166.8586 0230810 184.9300 174.9576 13.94152712682432

Suivez FENGYUN 1C DEB en temps réel avec AllMySat

Download on the App Store